sat.trackr.live / text

‹ back to catalog

STARLINK-3994

NORAD 52633 · 2022-052AM

PAYLOAD ACTIVE UNKNOWN

§ Identity

Operator
Country
US
Launch date
2022-05-14
Launch site
AFETR
Launch vehicle
Mass (kg)
RCS (m²)

Purposes: comms

External: N2YO · Heavens-Above · Gunter

§ Orbital elements

Epoch: 2026-09-20T02:40:57.714240Z

Period
95.44 min
Inclination
53.1586°
Eccentricity
0.0001655
Mean motion
15.08862763 rev/d
Perigee alt
538.5 km
Apogee alt
540.8 km
Semi-major
6,917.8 km
B*
1.4178e-4
RAAN
115.6641°
Arg perigee
84.4198°
Mean anomaly
275.6983°
Rev number
24,035

§ Raw data

STARLINK-39941 52633U 22052AM  26263.11177910  .00001970  00000+0  14178-3 0  99962 52633  53.1586 115.6641 0001655  84.4198 275.6983 15.08862763240354

JSON: /api/v1/satellites/52633 · /tle

For live sub-satellite position, see the globe view (requires WebGL).

§ Visibility from observer

Set your observer location to see the next 7 days of passes ≥ 10°. The values pass through the URL so the page stays shareable.

No JS? Fill the form by hand. The geolocation button needs JavaScript.